CFG7EP LPMA-EDDF

Flight info

Callsign CFG7EP
Flight time N/A
Altitude 38000
Route DEGUN DCT ROLAR DCT VERAM DCT ASMAR DCT DEMOS DCT LOTEE DCT AZFIC DCT ERIGA DCT MOKOR UN741 NTS DCT GONEK DCT TABOV DCT TSU DCT OQQAL DCT RANUX/N0456F390 DCT VALEK DCT LUTAX DCT DIK T856 NIVNU/N0407F230 T847 IMCOM IMCOM1A
Aircraft A20N/M-SDE2E3FGHIRWXY/LB1

Departure

Time 2026-05-05 17:26
Airport Cristiano Ronaldo International Airport (LPMA)

Arrival

Time N/A
Airport Frankfurt Main Airport (EDDF)
Time Latitude Longitude Altitude Speed Heading
2026-05-05 17:02 32.69334 -16.77692 181 ft 0 kts 137°
2026-05-05 17:08 32.69341 -16.77699 181 ft 2 kts 137°
2026-05-05 17:08 32.69353 -16.77712 181 ft 2 kts 138°
2026-05-05 17:08 32.69365 -16.77720 181 ft 2 kts 164°
2026-05-05 17:09 32.69380 -16.77723 181 ft 2 kts 184°
2026-05-05 17:09 32.69395 -16.77719 181 ft 2 kts 204°
2026-05-05 17:09 32.69406 -16.77710 181 ft 0 kts 223°
2026-05-05 17:09 32.69411 -16.77705 181 ft 1 kts 227°
2026-05-05 17:10 32.69412 -16.77704 181 ft 0 kts 227°
2026-05-05 17:12 32.69411 -16.77704 181 ft 0 kts 227°
2026-05-05 17:13 32.69402 -16.77716 181 ft 3 kts 227°
2026-05-05 17:13 32.69380 -16.77743 181 ft 9 kts 228°
2026-05-05 17:13 32.69330 -16.77804 181 ft 11 kts 225°
2026-05-05 17:13 32.69296 -16.77855 179 ft 5 kts 249°
2026-05-05 17:14 32.69295 -16.77861 179 ft 0 kts 251°
2026-05-05 17:14 32.69291 -16.77871 178 ft 2 kts 248°
2026-05-05 17:14 32.69291 -16.77872 178 ft 0 kts 250°
2026-05-05 17:23 32.69287 -16.77903 177 ft 10 kts 267°
2026-05-05 17:23 32.69274 -16.78047 167 ft 20 kts 236°
2026-05-05 17:23 32.69169 -16.78171 161 ft 22 kts 223°
2026-05-05 17:23 32.69051 -16.78305 157 ft 18 kts 226°
2026-05-05 17:24 32.68975 -16.78386 157 ft 14 kts 204°
2026-05-05 17:24 32.68909 -16.78411 157 ft 7 kts 207°
2026-05-05 17:24 32.68892 -16.78460 157 ft 3 kts 306°
2026-05-05 17:24 32.68921 -16.78463 157 ft 5 kts 36°
2026-05-05 17:25 32.68960 -16.78415 157 ft 21 kts 45°
2026-05-05 17:25 32.69115 -16.78232 159 ft 75 kts 44°
2026-05-05 17:25 32.69870 -16.77347 220 ft 153 kts 43°
2026-05-05 17:25 32.70668 -16.76411 698 ft 168 kts 45°
2026-05-05 17:26 32.71306 -16.75278 1572 ft 171 kts 65°
2026-05-05 17:26 32.71564 -16.73875 2339 ft 183 kts 85°
2026-05-05 17:26 32.71370 -16.72355 3044 ft 197 kts 107°
2026-05-05 17:26 32.70654 -16.70871 3543 ft 221 kts 122°
2026-05-05 17:27 32.69752 -16.69280 4146 ft 239 kts 118°
2026-05-05 17:27 32.68934 -16.67497 4746 ft 256 kts 111°
2026-05-05 17:27 32.68644 -16.65410 5435 ft 265 kts 78°
2026-05-05 17:27 32.69413 -16.63478 6305 ft 266 kts 47°
2026-05-05 17:28 32.70714 -16.61899 7097 ft 274 kts 44°
2026-05-05 17:28 32.72051 -16.60238 7913 ft 281 kts 45°
2026-05-05 17:28 32.73379 -16.58530 8753 ft 286 kts 46°
2026-05-05 17:28 32.74793 -16.56875 9541 ft 290 kts 34°
2026-05-05 17:29 32.76536 -16.55598 10341 ft 294 kts 26°
2026-05-05 17:29 32.78189 -16.54554 10854 ft 306 kts 25°
2026-05-05 17:29 32.80222 -16.53275 11289 ft 325 kts 26°
2026-05-05 17:29 32.82278 -16.51945 11665 ft 343 kts 27°
2026-05-05 17:30 32.84423 -16.50522 12015 ft 361 kts 27°
2026-05-05 17:30 32.86646 -16.49025 12606 ft 370 kts 27°
2026-05-05 17:30 32.88860 -16.47523 13313 ft 374 kts 28°
2026-05-05 17:30 32.91167 -16.45948 13881 ft 383 kts 28°
2026-05-05 17:31 32.93510 -16.44346 14156 ft 399 kts 28°
2026-05-05 17:31 32.95969 -16.42663 14422 ft 414 kts 28°
2026-05-05 17:31 32.98517 -16.40915 14711 ft 427 kts 28°
2026-05-05 17:31 33.01094 -16.39145 15235 ft 432 kts 28°
2026-05-05 17:32 33.03717 -16.37340 15857 ft 434 kts 28°
2026-05-05 17:32 33.06320 -16.35546 16448 ft 437 kts 28°
2026-05-05 17:32 33.08977 -16.33709 17006 ft 440 kts 28°
2026-05-05 17:32 33.11608 -16.31882 17532 ft 443 kts 28°
2026-05-05 17:33 33.14272 -16.30041 18060 ft 445 kts 28°
2026-05-05 17:33 33.16969 -16.28179 18571 ft 448 kts 28°
2026-05-05 17:33 33.19694 -16.26297 19017 ft 452 kts 28°
2026-05-05 17:33 33.22406 -16.24424 19448 ft 456 kts 28°
2026-05-05 17:34 33.25173 -16.22512 19880 ft 460 kts 28°
2026-05-05 17:34 33.27923 -16.20610 20292 ft 463 kts 28°
2026-05-05 17:34 33.30746 -16.18655 20719 ft 467 kts 28°
2026-05-05 17:34 33.33551 -16.16711 21121 ft 471 kts 28°
2026-05-05 17:35 33.36377 -16.14751 21522 ft 474 kts 28°
2026-05-05 17:35 33.39280 -16.12736 21917 ft 478 kts 28°
2026-05-05 17:35 33.42153 -16.10740 22291 ft 481 kts 28°
2026-05-05 17:35 33.45038 -16.08733 22655 ft 485 kts 28°
2026-05-05 17:36 33.47957 -16.06703 23007 ft 488 kts 28°
2026-05-05 17:36 33.50915 -16.04644 23360 ft 491 kts 28°
2026-05-05 17:36 33.53894 -16.02568 23750 ft 493 kts 28°
2026-05-05 17:36 33.56856 -16.00503 24267 ft 491 kts 28°
2026-05-05 17:37 33.59770 -15.98469 24814 ft 489 kts 28°
2026-05-05 17:37 33.62707 -15.96416 25331 ft 488 kts 28°
2026-05-05 17:37 33.65639 -15.94365 25818 ft 487 kts 28°
2026-05-05 17:37 33.68579 -15.92308 26306 ft 486 kts 28°
2026-05-05 17:38 33.71481 -15.90277 26798 ft 485 kts 27°
2026-05-05 17:38 33.74372 -15.88251 27284 ft 484 kts 28°
2026-05-05 17:38 33.77278 -15.86214 27766 ft 483 kts 27°
2026-05-05 17:38 33.80190 -15.84171 28234 ft 482 kts 27°
2026-05-05 17:39 33.83066 -15.82151 28666 ft 481 kts 28°
2026-05-05 17:39 33.85934 -15.80136 29085 ft 480 kts 28°
2026-05-05 17:39 33.88831 -15.78099 29502 ft 479 kts 28°
2026-05-05 17:39 33.91697 -15.76083 29879 ft 479 kts 28°
2026-05-05 17:40 33.94580 -15.74052 30258 ft 478 kts 28°
2026-05-05 17:40 33.97439 -15.72035 30639 ft 477 kts 28°
2026-05-05 17:40 34.00265 -15.70039 30984 ft 477 kts 27°
2026-05-05 17:40 34.03151 -15.68000 31323 ft 476 kts 27°
2026-05-05 17:41 34.05997 -15.65989 31644 ft 476 kts 27°
2026-05-05 17:41 34.08820 -15.63992 31975 ft 475 kts 27°
2026-05-05 17:41 34.11688 -15.61965 32311 ft 474 kts 27°
2026-05-05 17:41 34.14507 -15.59978 32634 ft 473 kts 27°
2026-05-05 17:42 34.17341 -15.57980 32952 ft 472 kts 27°
2026-05-05 17:42 34.20192 -15.55963 33271 ft 471 kts 27°
2026-05-05 17:42 34.22989 -15.53981 33573 ft 470 kts 27°
2026-05-05 17:42 34.25827 -15.51966 33883 ft 469 kts 27°
2026-05-05 17:43 34.28643 -15.49965 34190 ft 468 kts 27°
2026-05-05 17:43 34.31451 -15.47968 34465 ft 467 kts 27°
2026-05-05 17:43 34.34245 -15.45978 34710 ft 467 kts 27°
2026-05-05 17:43 34.37020 -15.44001 34929 ft 466 kts 27°
2026-05-05 17:44 34.39825 -15.42000 35150 ft 466 kts 27°
2026-05-05 17:44 34.42602 -15.40018 35339 ft 466 kts 27°
2026-05-05 17:44 34.45399 -15.38021 35530 ft 467 kts 27°
2026-05-05 17:44 34.48179 -15.36034 35711 ft 467 kts 27°
2026-05-05 17:45 34.50989 -15.34020 35893 ft 467 kts 27°
2026-05-05 17:45 34.53785 -15.32003 36062 ft 467 kts 27°
2026-05-05 17:45 34.56576 -15.29986 36240 ft 467 kts 27°
2026-05-05 17:45 34.59376 -15.27965 36437 ft 467 kts 27°
2026-05-05 17:46 34.62147 -15.25969 36606 ft 468 kts 27°
2026-05-05 17:46 34.64969 -15.23937 36771 ft 469 kts 27°
2026-05-05 17:46 34.67752 -15.21934 36938 ft 469 kts 27°
2026-05-05 17:46 34.70576 -15.19901 37103 ft 470 kts 27°
2026-05-05 17:47 34.73371 -15.17887 37254 ft 470 kts 27°
2026-05-05 17:47 34.76177 -15.15864 37381 ft 471 kts 27°
2026-05-05 17:47 34.79004 -15.13824 37524 ft 471 kts 27°
2026-05-05 17:47 34.81817 -15.11793 37652 ft 472 kts 27°
2026-05-05 17:48 34.84617 -15.09770 37780 ft 472 kts 27°
2026-05-05 17:48 34.87447 -15.07724 37891 ft 473 kts 27°
2026-05-05 17:48 34.90294 -15.05663 37995 ft 474 kts 27°
2026-05-05 17:49 34.95974 -15.01546 38116 ft 476 kts 27°
2026-05-05 17:49 35.01658 -14.97421 38124 ft 477 kts 27°
2026-05-05 17:50 35.07338 -14.93292 38126 ft 476 kts 27°
2026-05-05 17:50 35.13010 -14.89169 38127 ft 476 kts 27°
2026-05-05 17:51 35.18698 -14.85040 38125 ft 476 kts 27°
2026-05-05 17:51 35.24385 -14.80896 38130 ft 477 kts 27°
2026-05-05 17:52 35.30116 -14.76707 38146 ft 477 kts 27°
2026-05-05 17:52 35.35757 -14.72572 38141 ft 477 kts 27°
2026-05-05 17:53 35.41458 -14.68384 38140 ft 476 kts 27°
2026-05-05 17:53 35.47131 -14.64212 38146 ft 476 kts 27°
2026-05-05 17:54 35.52775 -14.60055 38144 ft 476 kts 27°
2026-05-05 17:54 35.58466 -14.55857 38147 ft 476 kts 27°
2026-05-05 17:55 35.64117 -14.51680 38147 ft 476 kts 27°